TCISK LTFG-LTAD

Flight info

Callsign TCISK
Flight time 0h 56m
Altitude 38000
Route ELROP DCT ENDER
Aircraft C750/M-SBDE3FGHRWXY/S

Departure

Time 2026-05-07 18:57
Airport Gazipaşa-Alanya Airport (LTFG)

Arrival

Time 2026-05-07 19:53
Airport Etimesgut Air Base (LTAD)
Time Latitude Longitude Altitude Speed Heading
2026-05-07 18:41 36.29806 32.30135 124 ft 0 kts 215°
2026-05-07 18:55 36.29804 32.30133 124 ft 2 kts 214°
2026-05-07 18:55 36.29807 32.30122 123 ft 4 kts 310°
2026-05-07 18:55 36.29828 32.30180 124 ft 15 kts 83°
2026-05-07 18:56 36.29844 32.30344 122 ft 16 kts 83°
2026-05-07 18:56 36.29863 32.30427 123 ft 9 kts 38°
2026-05-07 18:56 36.29897 32.30427 120 ft 1 kts 340°
2026-05-07 18:56 36.29913 32.30410 122 ft 6 kts 303°
2026-05-07 18:57 36.29929 32.30343 121 ft 12 kts 284°
2026-05-07 18:57 36.29942 32.30170 122 ft 33 kts 261°
2026-05-07 18:57 36.29855 32.29448 112 ft 141 kts 261°
2026-05-07 18:57 36.29702 32.28256 914 ft 135 kts 262°
2026-05-07 18:58 36.29573 32.27100 1801 ft 141 kts 265°
2026-05-07 18:58 36.29427 32.25816 2498 ft 157 kts 264°
2026-05-07 18:58 36.29259 32.24401 3116 ft 178 kts 264°
2026-05-07 18:58 36.29064 32.22760 3687 ft 206 kts 264°
2026-05-07 18:59 36.28843 32.20915 4394 ft 231 kts 263°
2026-05-07 18:59 36.28506 32.18878 5160 ft 251 kts 249°
2026-05-07 18:59 36.27317 32.17290 6169 ft 258 kts 208°
2026-05-07 18:59 36.25526 32.16801 6906 ft 277 kts 178°
2026-05-07 19:00 36.23641 32.17462 7802 ft 282 kts 157°
2026-05-07 19:00 36.21815 32.18381 9027 ft 286 kts 157°
2026-05-07 19:00 36.20097 32.19621 9878 ft 296 kts 135°
2026-05-07 19:00 36.18973 32.21784 10488 ft 310 kts 109°
2026-05-07 19:01 36.18788 32.24466 11051 ft 316 kts 82°
2026-05-07 19:01 36.19115 32.27155 12049 ft 317 kts 79°
2026-05-07 19:01 36.19473 32.29888 12883 ft 324 kts 79°
2026-05-07 19:01 36.19803 32.32673 13734 ft 330 kts 80°
2026-05-07 19:02 36.20126 32.35511 14501 ft 336 kts 80°
2026-05-07 19:02 36.20467 32.38405 15206 ft 342 kts 80°
2026-05-07 19:02 36.20816 32.41305 15972 ft 347 kts 79°
2026-05-07 19:02 36.21169 32.44295 16755 ft 353 kts 79°
2026-05-07 19:03 36.21523 32.47330 17552 ft 359 kts 79°
2026-05-07 19:03 36.21888 32.50409 18361 ft 364 kts 78°
2026-05-07 19:03 36.22681 32.53371 18980 ft 363 kts 57°
2026-05-07 19:03 36.24222 32.55803 19864 ft 356 kts 39°
2026-05-07 19:04 36.26286 32.57441 20690 ft 351 kts 20°
2026-05-07 19:04 36.28619 32.58328 21516 ft 351 kts 11°
2026-05-07 19:04 36.30995 32.59063 22354 ft 354 kts 10°
2026-05-07 19:04 36.33397 32.59806 23222 ft 357 kts 10°
2026-05-07 19:05 36.35765 32.60574 23971 ft 354 kts 11°
2026-05-07 19:05 36.38196 32.61362 24399 ft 365 kts 10°
2026-05-07 19:05 36.40657 32.62146 25227 ft 363 kts 10°
2026-05-07 19:05 36.43111 32.62927 25961 ft 366 kts 10°
2026-05-07 19:06 36.45588 32.63720 26666 ft 369 kts 10°
2026-05-07 19:06 36.50615 32.65165 28013 ft 371 kts
2026-05-07 19:06 36.53180 32.65077 28752 ft 369 kts 352°
2026-05-07 19:07 36.55744 32.64799 29551 ft 371 kts 352°
2026-05-07 19:07 36.58332 32.64528 30165 ft 374 kts 352°
2026-05-07 19:07 36.60908 32.64268 30768 ft 377 kts 352°
2026-05-07 19:07 36.63535 32.63999 31322 ft 380 kts 352°
2026-05-07 19:08 36.66189 32.63721 31892 ft 383 kts 352°
2026-05-07 19:08 36.68867 32.63440 32449 ft 387 kts 352°
2026-05-07 19:08 36.71566 32.63161 33007 ft 391 kts 352°
2026-05-07 19:08 36.74291 32.62877 33545 ft 394 kts 351°
2026-05-07 19:09 36.77035 32.62593 34110 ft 397 kts 351°
2026-05-07 19:09 36.79770 32.62309 34547 ft 401 kts 351°
2026-05-07 19:09 36.82557 32.62019 35091 ft 402 kts 351°
2026-05-07 19:09 36.85353 32.61726 35605 ft 404 kts 351°
2026-05-07 19:10 36.88163 32.61432 36137 ft 406 kts 352°
2026-05-07 19:10 36.90978 32.61140 36716 ft 406 kts 352°
2026-05-07 19:10 36.93795 32.60847 37296 ft 406 kts 352°
2026-05-07 19:10 36.96620 32.60551 37861 ft 408 kts 352°
2026-05-07 19:11 36.99462 32.60252 38201 ft 414 kts 352°
2026-05-07 19:11 37.02384 32.59943 38196 ft 428 kts 352°
2026-05-07 19:11 37.05394 32.59627 38198 ft 440 kts 352°
2026-05-07 19:11 37.08488 32.59305 38211 ft 451 kts 352°
2026-05-07 19:12 37.14848 32.58638 38205 ft 469 kts 352°
2026-05-07 19:12 37.21429 32.57946 38211 ft 478 kts 352°
2026-05-07 19:13 37.28087 32.57247 38212 ft 481 kts 352°
2026-05-07 19:13 37.34761 32.56541 38209 ft 481 kts 352°
2026-05-07 19:14 37.41408 32.55840 38204 ft 480 kts 352°
2026-05-07 19:14 37.48093 32.55130 38205 ft 481 kts 352°
2026-05-07 19:15 37.53641 32.54542 38202 ft 481 kts 352°
2026-05-07 19:15 37.61402 32.53717 38207 ft 481 kts 352°
2026-05-07 19:16 37.66952 32.53126 38211 ft 481 kts 352°
2026-05-07 19:16 37.73628 32.52414 38213 ft 481 kts 352°
2026-05-07 19:17 37.80307 32.51700 38217 ft 481 kts 352°
2026-05-07 19:17 37.86965 32.50988 38217 ft 483 kts 352°
2026-05-07 19:18 37.93662 32.50270 38219 ft 483 kts 352°
2026-05-07 19:18 38.00365 32.49550 38243 ft 483 kts 352°
2026-05-07 19:19 38.07066 32.48828 38241 ft 483 kts 352°
2026-05-07 19:19 38.13772 32.48105 38235 ft 483 kts 352°
2026-05-07 19:20 38.20434 32.47386 38231 ft 483 kts 352°
2026-05-07 19:20 38.27141 32.46659 38221 ft 483 kts 352°
2026-05-07 19:21 38.33854 32.45932 38211 ft 483 kts 352°
2026-05-07 19:21 38.40510 32.45208 38208 ft 483 kts 352°
2026-05-07 19:22 38.47208 32.44480 38195 ft 483 kts 352°
2026-05-07 19:22 38.50543 32.44117 38035 ft 471 kts 352°
2026-05-07 19:22 38.53714 32.43778 37400 ft 445 kts 352°
2026-05-07 19:23 38.56733 32.43450 36825 ft 424 kts 352°
2026-05-07 19:23 38.59633 32.43127 36275 ft 414 kts 351°
2026-05-07 19:23 38.62499 32.42808 35734 ft 413 kts 351°
2026-05-07 19:23 38.65362 32.42495 35188 ft 411 kts 352°
2026-05-07 19:24 38.68168 32.42191 34651 ft 411 kts 352°
2026-05-07 19:24 38.71031 32.41877 34092 ft 409 kts 351°
2026-05-07 19:24 38.73869 32.41564 33529 ft 410 kts 351°
2026-05-07 19:24 38.76725 32.41249 32985 ft 412 kts 352°
2026-05-07 19:25 38.79589 32.40935 32438 ft 414 kts 352°
2026-05-07 19:25 38.82463 32.40620 31891 ft 415 kts 352°
2026-05-07 19:25 38.85349 32.40302 31338 ft 416 kts 352°
2026-05-07 19:25 38.88241 32.39983 30787 ft 419 kts 352°
2026-05-07 19:26 38.91134 32.39664 30229 ft 414 kts 352°
2026-05-07 19:26 38.93959 32.39355 29653 ft 411 kts 352°
2026-05-07 19:26 38.96804 32.39040 29116 ft 409 kts 352°
2026-05-07 19:26 38.99631 32.38726 28576 ft 406 kts 352°
2026-05-07 19:27 39.02441 32.38416 28034 ft 404 kts 352°
2026-05-07 19:27 39.05239 32.38107 27506 ft 402 kts 352°
2026-05-07 19:27 39.08025 32.37798 26975 ft 399 kts 352°
2026-05-07 19:27 39.10787 32.37491 26449 ft 397 kts 352°
2026-05-07 19:28 39.13501 32.37190 25929 ft 395 kts 352°
2026-05-07 19:28 39.16237 32.36887 25411 ft 392 kts 352°
2026-05-07 19:28 39.18952 32.36585 24893 ft 391 kts 352°
2026-05-07 19:28 39.21655 32.36284 24378 ft 389 kts 352°
2026-05-07 19:29 39.24347 32.35984 23872 ft 387 kts 353°
2026-05-07 19:29 39.27021 32.35687 23310 ft 384 kts 353°
2026-05-07 19:29 39.29676 32.35391 22807 ft 382 kts 353°
2026-05-07 19:29 39.32316 32.35097 22300 ft 380 kts 353°
2026-05-07 19:30 39.34944 32.34803 21807 ft 378 kts 353°
2026-05-07 19:30 39.37558 32.34511 21303 ft 376 kts 353°
2026-05-07 19:30 39.40129 32.34224 20816 ft 374 kts 353°
2026-05-07 19:30 39.42718 32.33933 20323 ft 372 kts 353°
2026-05-07 19:31 39.45300 32.33644 19834 ft 372 kts 353°
2026-05-07 19:31 39.47867 32.33357 19304 ft 370 kts 353°
2026-05-07 19:31 39.50426 32.33070 18662 ft 366 kts 354°
2026-05-07 19:31 39.52970 32.32784 18131 ft 365 kts 354°
2026-05-07 19:32 39.55500 32.32500 17648 ft 364 kts 354°
2026-05-07 19:32 39.58016 32.32218 17169 ft 362 kts 354°
2026-05-07 19:32 39.60522 32.31937 16690 ft 361 kts 354°
2026-05-07 19:32 39.62989 32.31659 16221 ft 360 kts 354°
2026-05-07 19:33 39.65484 32.31377 15747 ft 358 kts 354°
2026-05-07 19:33 39.67970 32.31097 15267 ft 357 kts 354°
2026-05-07 19:33 39.70446 32.30818 14790 ft 356 kts 354°
2026-05-07 19:33 39.72913 32.30540 14330 ft 354 kts 354°
2026-05-07 19:34 39.75372 32.30262 13844 ft 353 kts 354°
2026-05-07 19:34 39.77779 32.29990 13369 ft 351 kts 354°
2026-05-07 19:34 39.80209 32.29715 12911 ft 349 kts 354°
2026-05-07 19:34 39.82629 32.29442 12445 ft 348 kts 354°
2026-05-07 19:35 39.85037 32.29169 11978 ft 346 kts 353°
2026-05-07 19:35 39.87433 32.28897 11523 ft 345 kts 353°
2026-05-07 19:35 39.89797 32.28630 11075 ft 330 kts 353°
2026-05-07 19:35 39.91998 32.28384 10640 ft 305 kts 353°
2026-05-07 19:36 39.94018 32.28154 10257 ft 286 kts 353°
2026-05-07 19:36 39.95909 32.27939 9883 ft 267 kts 352°
2026-05-07 19:36 39.97730 32.27729 9527 ft 264 kts 352°
2026-05-07 19:36 39.99544 32.27521 9185 ft 259 kts 352°
2026-05-07 19:37 40.01332 32.27318 8848 ft 256 kts 352°
2026-05-07 19:37 40.03106 32.27116 8512 ft 254 kts 352°
2026-05-07 19:37 40.04867 32.26915 8179 ft 253 kts 352°
2026-05-07 19:37 40.06617 32.26716 7956 ft 248 kts 352°
2026-05-07 19:38 40.08320 32.26390 7943 ft 248 kts 343°
2026-05-07 19:38 40.09902 32.25574 7963 ft 248 kts 330°
2026-05-07 19:38 40.11312 32.24303 7954 ft 246 kts 318°
2026-05-07 19:38 40.12464 32.22653 7961 ft 246 kts 306°
2026-05-07 19:39 40.13300 32.20703 7962 ft 246 kts 293°
2026-05-07 19:39 40.13776 32.18554 7958 ft 247 kts 281°
2026-05-07 19:39 40.13874 32.16309 7966 ft 248 kts 270°
2026-05-07 19:39 40.13317 32.14189 7925 ft 252 kts 239°
2026-05-07 19:40 40.12053 32.12582 7937 ft 258 kts 214°
2026-05-07 19:40 40.10337 32.11866 7939 ft 264 kts 187°
2026-05-07 19:40 40.08521 32.12258 7942 ft 269 kts 159°
2026-05-07 19:40 40.07031 32.13727 7945 ft 272 kts 130°
2026-05-07 19:41 40.06240 32.15939 7950 ft 271 kts 101°
2026-05-07 19:41 40.06142 32.18362 7994 ft 271 kts 89°
2026-05-07 19:41 40.06166 32.20817 7987 ft 270 kts 88°
2026-05-07 19:41 40.06179 32.23279 7977 ft 270 kts 89°
2026-05-07 19:42 40.06170 32.25733 7972 ft 270 kts 89°
2026-05-07 19:42 40.06301 32.28174 7920 ft 269 kts 73°
2026-05-07 19:42 40.07219 32.30237 7936 ft 263 kts 45°
2026-05-07 19:42 40.08720 32.31515 7949 ft 257 kts 17°
2026-05-07 19:43 40.10445 32.31780 7951 ft 251 kts 352°
2026-05-07 19:43 40.12073 32.31037 7957 ft 248 kts 327°
2026-05-07 19:43 40.13281 32.29456 7960 ft 248 kts 302°
2026-05-07 19:43 40.13845 32.27351 7957 ft 247 kts 278°
2026-05-07 19:44 40.13882 32.25097 7994 ft 248 kts 271°
2026-05-07 19:44 40.13875 32.22867 7984 ft 248 kts 271°
2026-05-07 19:44 40.13876 32.20614 7985 ft 247 kts 271°
2026-05-07 19:44 40.13879 32.18362 7979 ft 248 kts 271°
2026-05-07 19:45 40.13839 32.16105 7955 ft 249 kts 265°
2026-05-07 19:45 40.13182 32.14018 7942 ft 253 kts 238°
2026-05-07 19:45 40.11862 32.12482 7941 ft 258 kts 211°
2026-05-07 19:45 40.10118 32.11875 7939 ft 265 kts 184°
2026-05-07 19:46 40.08318 32.12397 7943 ft 269 kts 156°
2026-05-07 19:46 40.06908 32.13953 7947 ft 272 kts 127°
2026-05-07 19:46 40.06209 32.16227 7950 ft 271 kts 97°
2026-05-07 19:46 40.06146 32.18679 7997 ft 271 kts 88°
2026-05-07 19:47 40.06168 32.21136 7988 ft 270 kts 88°
2026-05-07 19:47 40.06177 32.23590 7978 ft 270 kts 89°
2026-05-07 19:47 40.06169 32.26046 7977 ft 270 kts 89°
2026-05-07 19:47 40.06162 32.28517 7823 ft 274 kts 89°
2026-05-07 19:48 40.06160 32.30960 7516 ft 270 kts 89°
2026-05-07 19:48 40.06157 32.33400 7220 ft 268 kts 89°
2026-05-07 19:48 40.06025 32.35806 6866 ft 267 kts 103°
2026-05-07 19:48 40.05335 32.38045 6607 ft 265 kts 114°
2026-05-07 19:49 40.04570 32.40247 6335 ft 265 kts 114°
2026-05-07 19:49 40.03847 32.42424 6037 ft 263 kts 113°
2026-05-07 19:49 40.03139 32.44616 5741 ft 260 kts 113°
2026-05-07 19:49 40.02426 32.46782 5447 ft 258 kts 113°
2026-05-07 19:50 40.01713 32.48940 5178 ft 259 kts 113°
2026-05-07 19:50 40.01004 32.51086 4880 ft 257 kts 114°
2026-05-07 19:50 40.00307 32.53195 4592 ft 247 kts 113°
2026-05-07 19:50 39.99642 32.55206 4309 ft 235 kts 114°
2026-05-07 19:51 39.99022 32.57080 4059 ft 215 kts 114°
2026-05-07 19:51 39.98481 32.58711 3801 ft 178 kts 113°
2026-05-07 19:51 39.98032 32.60066 3621 ft 151 kts 113°
2026-05-07 19:51 39.97629 32.61280 3471 ft 139 kts 112°
2026-05-07 19:52 39.97262 32.62385 3330 ft 127 kts 112°
2026-05-07 19:52 39.96916 32.63426 3209 ft 124 kts 113°
2026-05-07 19:52 39.96585 32.64455 3079 ft 123 kts 112°
2026-05-07 19:52 39.96251 32.65482 2962 ft 123 kts 113°
2026-05-07 19:53 39.95910 32.66496 2821 ft 121 kts 114°
2026-05-07 19:53 39.95574 32.67480 2706 ft 117 kts 114°
2026-05-07 19:53 39.95277 32.68361 2689 ft 85 kts 114°
2026-05-07 19:53 39.95114 32.68837 2691 ft 43 kts 113°
2026-05-07 19:54 39.94999 32.69181 2692 ft 41 kts 114°
2026-05-07 19:54 39.94882 32.69521 2692 ft 40 kts 114°
2026-05-07 19:54 39.94788 32.69799 2692 ft 20 kts 114°
2026-05-07 19:54 39.94789 32.69925 2693 ft 14 kts 40°
2026-05-07 19:55 39.94886 32.69949 2697 ft 16 kts 359°
2026-05-07 19:55 39.95015 32.69902 2697 ft 24 kts 332°
2026-05-07 19:55 39.95119 32.69686 2696 ft 42 kts 294°
2026-05-07 19:55 39.95257 32.69298 2694 ft 50 kts 294°
2026-05-07 19:56 39.95397 32.68903 2692 ft 46 kts 294°
2026-05-07 19:56 39.95502 32.68604 2691 ft 30 kts 294°
2026-05-07 19:56 39.95583 32.68413 2690 ft 17 kts 300°
2026-05-07 19:56 39.95572 32.68357 2690 ft 12 kts 204°
2026-05-07 19:57 39.95520 32.68325 2690 ft 0 kts 206°
2026-05-07 20:13 39.95610 32.67917 2692 ft 0 kts 206°